Hourly Data Report for July 10, 2013

All times are specified in Local Standard Time (LST). Add 1 hour to adjust for Daylight Saving Time where and when it is observed.

INUVIK A
NORTHWEST TERRITORIES

68°18'14.000" N
133°28'59.000" W
67.70 m
2202571
YEV

Related Data

No related data is available for this station

Download Data

Hourly Data (July 2013)
Hourly Data Report for July 10, 2013
Temp Definition
°C
Dew Point Temp Definition
°C
Rel Hum Definition
%
Wind Dir Definition
10's deg

Wind Spd Definition
km/h
Visibility Definition
km
Stn Press Definition
kPa
Hmdx Definition


Wind Chill Definition


Weather Definition


TIME
00:00 Legend Double Dagger 10.2 6.0 75 2 26 24.1 100.35     LegendNANA
01:00 Legend Double Dagger 9.5 5.7 77 2 28 24.1 100.41     LegendNANA
02:00 Legend Double Dagger 9.1 5.3 77 2 22 24.1 100.47     Mostly Cloudy
03:00 Legend Double Dagger 8.4 5.4 81 1 22 24.1 100.51     LegendNANA
04:00 Legend Double Dagger 7.7 4.8 82 1 19 24.1 100.55     LegendNANA
05:00 Legend Double Dagger 7.1 4.4 83 1 18 24.1 100.64     Mostly Cloudy
06:00 Legend Double Dagger 6.7 4.0 83 36 23 24.1 100.69     LegendNANA
07:00 Legend Double Dagger 6.8 4.1 83 35 13 24.1 100.73     LegendNANA
08:00 Legend Double Dagger 6.7 3.9 82 34 17 24.1 100.76     Cloudy
09:00 Legend Double Dagger 7.3 3.9 79 35 19 24.1 100.79     LegendNANA
10:00 Legend Double Dagger 8.6 4.4 75 33 21 24.1 100.79     LegendNANA
11:00 Legend Double Dagger 9.9 5.3 73 33 18 24.1 100.79     Mostly Cloudy
12:00 Legend Double Dagger 12.4 6.5 67 35 17 24.1 100.81     LegendNANA
13:00 Legend Double Dagger 14.4 6.6 59 35 30 24.1 100.79     LegendNANA
14:00 Legend Double Dagger 15.9 7.5 57 35 19 24.1 100.80     Mainly Clear
15:00 Legend Double Dagger 17.0 7.5 53 36 24 24.1 100.77     LegendNANA
16:00 Legend Double Dagger 17.2 6.2 48 36 37 24.1 100.80     LegendNANA
17:00 Legend Double Dagger 17.2 5.9 47 1 32 24.1 100.84     Mainly Clear
18:00 Legend Double Dagger 15.8 4.9 48 LegendMM LegendMM 24.1 100.90     LegendNANA
19:00 Legend Double Dagger 15.2 3.4 45 1 23 24.1 100.94     LegendNANA
20:00 Legend Double Dagger 13.1 3.8 53 36 37 24.1 101.01     Clear
21:00 Legend Double Dagger 11.4 3.5 58 1 24 24.1 101.07     LegendNANA
22:00 Legend Double Dagger 10.2 4.0 65 36 18 24.1 101.13     LegendNANA
23:00 Legend Double Dagger 8.3 3.2 70 35 22 24.1 101.20     Mainly Clear

Notes on Data Quality.

Legend

  • E = Estimated
  • M = Missing
  • NA = Not Available
  • ‡ = Partner data that is not subject to review by the National Climate Archives
Date modified: